GW6581 Weather Reports


time (UTC)temp
C
wind
direction
speed
KPH
gust
KPH
rain 1hr
cm
rain 24hr
cm
rain mn
cm
humidity
%
barometer
mb
20260504050542 15 51 0.0 3.2 0.00 0.00 0.00 83 1014.0
20260504045542 15 356 1.6 4.8 0.00 0.00 0.00 83 1014.0
20260504045042 15 104 1.6 4.8 0.00 0.00 0.00 83 1014.0
20260504044544 15 8 3.2 4.8 0.00 0.00 0.00 83 1014.0
20260504044042 15 43 1.6 3.2 0.00 0.00 0.00 83 1014.0
20260504043542 15 333 0.0 3.2 0.00 0.00 0.00 83 1014.0
20260504043042 15 343 3.2 4.8 0.00 0.00 0.00 83 1014.0
20260504042542 15 39 0.0 3.2 0.00 0.00 0.00 83 1014.0
20260504042043 15 340 1.6 3.2 0.00 0.00 0.00 83 1014.0
20260504041542 15 61 0.0 4.8 0.00 0.00 0.00 83 1014.0
20260504041042 15 16 3.2 4.8 0.00 0.00 0.00 83 1014.0
20260504040543 15 53 3.2 4.8 0.00 0.00 0.00 83 1014.0
20260504040043 15 1 1.6 6.4 0.00 0.00 0.00 83 1014.0
20260504035543 15 335 3.2 3.2 0.00 0.00 0.00 83 1015.0
20260504035043 15 32 4.8 4.8 0.00 0.00 0.00 83 1014.0
20260504034542 15 31 3.2 4.8 0.00 0.00 0.00 84 1014.0
20260504034042 15 1 1.6 3.2 0.00 0.00 0.00 84 1014.0
20260504033546 15 33 0.0 1.6 0.00 0.00 0.00 84 1014.0
20260504033042 15 315 0.0 1.6 0.00 0.00 0.00 84 1015.0
20260504032542 15 237 0.0 4.8 0.00 0.00 0.00 84 1015.0
20260504032043 15 161 3.2 3.2 0.00 0.00 0.00 84 1015.0
20260504031542 15 293 3.2 4.8 0.00 0.00 0.00 84 1014.0
20260504031042 15 29 0.0 1.6 0.00 0.00 0.00 84 1015.0
20260504030542 15 353 3.2 3.2 0.00 0.00 0.00 84 1015.0
20260504030042 15 348 1.6 3.2 0.00 0.00 0.00 84 1015.0
20260504025543 15 14 1.6 3.2 0.00 0.00 0.00 84 1015.0
20260504025042 15 159 1.6 3.2 0.00 0.00 0.00 83 1015.0
20260504024542 15 121 1.6 3.2 0.00 0.00 0.00 83 1015.0
20260504024042 15 49 3.2 3.2 0.00 0.00 0.00 83 1014.0
20260504023543 15 38 0.0 0.0 0.00 0.00 0.00 82 1014.0
20260504023043 15 128 0.0 3.2 0.00 0.00 0.00 82 1014.0
20260504022542 15 229 1.6 4.8 0.00 0.00 0.00 82 1014.0
20260504022042 15 248 3.2 3.2 0.00 0.00 0.00 82 1015.0
20260504021543 15 286 1.6 3.2 0.00 0.00 0.00 83 1014.0
20260504021043 15 357 1.6 3.2 0.00 0.00 0.00 82 1015.0
20260504020543 15 347 3.2 3.2 0.00 0.00 0.00 82 1014.0
20260504020042 15 333 1.6 3.2 0.00 0.00 0.00 83 1015.0
20260504015543 15 337 4.8 6.4 0.00 0.00 0.00 83 1014.0
20260504015045 15 339 3.2 4.8 0.00 0.00 0.00 84 1015.0
20260504014542 15 322 0.0 3.2 0.00 0.00 0.00 83 1015.0
20260504014042 15 349 0.0 3.2 0.00 0.00 0.00 84 1015.0
20260504013543 15 327 4.8 4.8 0.00 0.00 0.00 84 1014.0
20260504013042 14 329 3.2 3.2 0.00 0.00 0.00 84 1015.0
20260504012543 14 265 0.0 3.2 0.00 0.00 0.00 85 1015.0
20260504012043 14 200 0.0 3.2 0.00 0.00 0.00 84 1015.0
20260504011544 14 172 0.0 3.2 0.00 0.00 0.00 85 1015.0
20260504011042 14 229 0.0 1.6 0.00 0.00 0.00 85 1015.0
20260504010542 14 359 0.0 1.6 0.00 0.00 0.00 84 1015.0
20260504010042 15 63 1.6 3.2 0.00 0.00 0.00 84 1015.0
20260504005055 15 336 0.0 0.0 0.00 0.00 0.00 83 1015.0
20260504004542 15 309 1.6 3.2 0.00 0.00 0.00 83 1015.0
20260504004042 15 194 0.0 3.2 0.00 0.00 0.00 83 1015.0
20260504003543 15 206 3.2 3.2 0.00 0.00 0.00 83 1015.0
20260504003042 15 173 0.0 1.6 0.00 0.00 0.00 82 1015.0
20260504002542 15 150 0.0 3.2 0.00 0.00 0.00 82 1015.0
20260504002043 15 121 0.0 1.6 0.00 0.00 0.00 82 1015.0
20260504001542 15 226 0.0 0.0 0.00 0.00 0.00 82 1015.0
20260504001042 15 302 0.0 1.6 0.00 0.00 0.00 82 1015.0
20260504000542 15 216 3.2 3.2 0.00 0.00 0.00 82 1015.0
20260504000044 15 183 0.0 3.2 0.00 0.00 0.03 81 1015.0
20260503235543 15 230 1.6 4.8 0.00 0.00 0.03 81 1015.0
20260503235042 15 161 3.2 3.2 0.00 0.00 0.03 80 1015.0
20260503234542 15 119 0.0 1.6 0.00 0.00 0.03 79 1015.0
20260503234042 15 121 0.0 3.2 0.00 0.00 0.03 79 1015.0
20260503233542 15 48 3.2 6.4 0.00 0.00 0.03 79 1015.0
20260503233042 15 2 0.0 4.8 0.00 0.00 0.03 79 1015.0
20260503232542 15 22 3.2 4.8 0.00 0.00 0.03 80 1015.0
20260503232042 15 3 4.8 4.8 0.00 0.00 0.03 80 1015.0
20260503231542 15 46 0.0 1.6 0.00 0.00 0.03 80 1015.0
20260503231042 15 33 0.0 3.2 0.00 0.00 0.03 80 1016.0
20260503230542 15 139 0.0 3.2 0.00 0.00 0.03 79 1016.0
20260503230043 15 178 1.6 3.2 0.00 0.00 0.03 79 1016.0
20260503225542 15 121 1.6 3.2 0.00 0.00 0.03 78 1016.0
20260503225042 15 289 1.6 3.2 0.00 0.00 0.03 78 1015.0
20260503224542 15 58 0.0 3.2 0.00 0.00 0.03 77 1016.0
20260503224042 15 19 1.6 4.8 0.00 0.00 0.03 77 1015.0
20260503223542 15 5 3.2 3.2 0.00 0.00 0.03 77 1015.0
20260503223042 15 346 3.2 6.4 0.00 0.00 0.03 77 1015.0
20260503222542 15 341 3.2 4.8 0.00 0.00 0.03 77 1016.0
20260503222043 15 8 3.2 4.8 0.00 0.00 0.03 77 1015.0
20260503221542 15 310 1.6 4.8 0.00 0.00 0.03 77 1015.0
20260503221042 15 340 0.0 3.2 0.00 0.00 0.03 77 1016.0
20260503220542 15 358 1.6 3.2 0.00 0.00 0.03 77 1015.0
20260503220042 15 32 4.8 6.4 0.00 0.00 0.03 77 1015.0
20260503215542 15 17 3.2 4.8 0.00 0.00 0.03 77 1015.0
20260503215043 15 83 0.0 3.2 0.00 0.00 0.03 77 1015.0
20260503214542 15 26 4.8 4.8 0.00 0.00 0.03 77 1015.0
20260503214042 15 359 1.6 4.8 0.00 0.00 0.03 76 1015.0
20260503213543 15 53 0.0 4.8 0.00 0.00 0.03 76 1015.0
20260503213042 15 328 4.8 8.0 0.00 0.00 0.03 77 1015.0
20260503212542 15 10 3.2 8.0 0.00 0.00 0.03 77 1015.0
20260503212042 15 358 6.4 6.4 0.00 0.00 0.03 77 1015.0
20260503211543 15 109 0.0 8.0 0.00 0.00 0.03 76 1015.0
20260503211042 15 359 3.2 4.8 0.00 0.00 0.03 77 1015.0
20260503210542 15 349 4.8 8.0 0.00 0.00 0.03 77 1015.0
20260503210042 15 316 4.8 6.4 0.00 0.00 0.03 76 1015.0
20260503205542 15 284 3.2 4.8 0.00 0.00 0.03 76 1015.0
20260503205043 15 331 3.2 8.0 0.00 0.00 0.03 76 1016.0
20260503204542 16 345 3.2 6.4 0.00 0.00 0.03 76 1015.0
20260503204043 16 285 4.8 8.0 0.00 0.00 0.03 76 1016.0
20260503203542 16 7 6.4 11.3 0.00 0.00 0.03 75 1016.0
20260503203042 16 263 1.6 8.0 0.00 0.00 0.03 75 1016.0
20260503202542 16 345 3.2 8.0 0.00 0.00 0.03 74 1016.0
20260503202042 16 352 4.8 14.5 0.00 0.00 0.03 73 1015.0
20260503201542 16 1 3.2 4.8 0.00 0.00 0.03 73 1016.0
20260503201042 16 12 1.6 4.8 0.00 0.00 0.03 72 1016.0
20260503200542 16 11 6.4 8.0 0.00 0.00 0.03 72 1016.0
20260503200045 16 335 6.4 6.4 0.00 0.00 0.03 72 1016.0
20260503195543 16 319 3.2 8.0 0.00 0.00 0.03 73 1016.0
20260503195042 16 351 4.8 8.0 0.00 0.00 0.03 73 1016.0
20260503194542 16 17 3.2 6.4 0.00 0.00 0.03 72 1016.0
20260503194043 16 10 3.2 4.8 0.00 0.00 0.03 72 1016.0
20260503193542 16 6 4.8 12.9 0.00 0.00 0.03 71 1016.0
20260503193042 16 315 4.8 11.3 0.00 0.00 0.03 70 1015.0
20260503192542 16 7 8.0 9.7 0.00 0.00 0.03 69 1016.0
20260503192042 16 18 6.4 9.7 0.00 0.00 0.03 68 1015.0
20260503191542 16 20 3.2 8.0 0.00 0.00 0.03 68 1016.0
20260503191043 16 306 4.8 6.4 0.00 0.00 0.03 68 1016.0
20260503190542 16 3 4.8 8.0 0.00 0.00 0.03 68 1016.0
20260503190042 16 20 3.2 8.0 0.00 0.00 0.03 68 1016.0
20260503185543 16 4 6.4 8.0 0.00 0.00 0.03 68 1015.0
20260503185043 16 21 4.8 8.0 0.00 0.00 0.03 68 1015.0
20260503184542 16 345 1.6 6.4 0.00 0.00 0.03 69 1015.0
20260503184042 16 358 6.4 8.0 0.00 0.00 0.03 69 1015.0
20260503183542 16 353 4.8 8.0 0.00 0.00 0.03 70 1015.0
20260503183042 16 2 8.0 8.0 0.00 0.00 0.03 71 1015.0
20260503182542 16 315 1.6 6.4 0.00 0.00 0.03 73 1015.0
20260503182042 16 84 3.2 6.4 0.00 0.00 0.03 76 1015.0
20260503181542 16 297 3.2 8.0 0.00 0.00 0.03 78 1015.0
20260503181042 16 64 6.4 8.0 0.00 0.00 0.03 79 1015.0
20260503180542 16 53 9.7 9.7 0.00 0.00 0.03 81 1016.0
20260503180042 16 57 12.9 16.1 0.00 0.00 0.03 81 1016.0
20260503175544 16 82 3.2 12.9 0.00 0.00 0.03 81 1015.0
20260503175042 16 57 6.4 12.9 0.00 0.00 0.03 82 1015.0
20260503174542 16 70 9.7 14.5 0.00 0.00 0.03 82 1015.0
20260503174042 16 23 8.0 8.0 0.00 0.00 0.03 82 1015.0
20260503173543 16 14 3.2 6.4 0.00 0.00 0.03 82 1015.0
20260503173042 16 344 11.3 12.9 0.00 0.00 0.03 81 1015.0
20260503172542 16 27 4.8 11.3 0.00 0.00 0.03 81 1015.0
20260503172042 16 317 4.8 8.0 0.00 0.00 0.03 80 1015.0
20260503171543 16 338 8.0 14.5 0.00 0.00 0.03 80 1015.0
20260503171045 16 307 1.6 6.4 0.00 0.00 0.03 80 1015.0
20260503170543 17 66 12.9 14.5 0.00 0.00 0.03 79 1015.0
20260503131043 17 125 4.8 12.9 0.00 0.00 0.03 75 1016.0
20260503130542 17 16 8.0 8.0 0.00 0.00 0.03 75 1017.0
20260503110542 17 61 11.3 20.9 0.00 0.00 0.03 74 1018.0